Hlavní strana
METAR-TAF:

METAR-TAF

Letiště :

Lawrenceville-Vincennes International Airport

Lawrenceville, Illinois, Spojené státy americké

zeměpisná šířka: 38-45-38N, zeměpisná délka: 087-35-56W, výška: 131 m

Aktuální stav počasí

Zpráva byla vytvořena před 1 hodinou a 2 minutami, v 12:53 UTC
Západoseverozápadní vítr 4 kt
Teplota 0°C
Vlhkost vzduchu 80%
Tlak 1029 hPa
Viditelnost: 16.1 km
Jasno

METAR: KLWV 181253Z AUTO 29004KT 10SM CLR 00/M03 A3040 RMK AO2 SLP298 T00001033

Čas: 08:55 (13:55 UTC)


TAF: chybějící

Stav a předpovědi počasí z více než 4 000 letišť (zprávy METAR a TAF).

Červené a žluté tečky na mapě představují dostupné meteorologické stanice.

Když kurzor umístíte na tečku, zobrazí se název stanice.

Pak kliknutím zobrazíte stav a předpověď počasí.

Chcete-li změnit mapu, kliknutím na zelené tlačítko se znaménkem +mapu přiblížíte, kliknutím na zelené tlačítko se znaménkem – mapu oddálíte a kliknutím na zelené šipky přejdete na sousední mapy.


METAR-TAF: